Blair, NE

2:39 PM CDT on July 24, 2017 (GMT -0500)
Blair Municipal

Weather History for KBTA - October, 2012

Change the Weather History Date:

Tuesday, October 23, 2012

  Actual Average (KOMA) Record (KOMA)
Temperature  
Mean Temperature 62 °F -  
Max Temperature 72 °F 63 °F 84 °F (1899)
Min Temperature 53 °F 41 °F 20 °F (1981)
Degree Days  
Heating Degree Days 2    
Growing Degree Days 12 (Base 50)    
Moisture  
Dew Point 57 °F    
Average Humidity 88    
Maximum Humidity 96    
Minimum Humidity 69    
Precipitation  
Precipitation 0.00 in - - ()
Sea Level Pressure  
Sea Level Pressure 29.73 in    
Wind  
Wind Speed 7 mph (SSW)    
Max Wind Speed 13 mph    
Max Gust Speed -    
Visibility 5 miles    
Events Fog    
Averages and records for this station are not official NWS values.
T = Trace of Precipitation, MM = Missing Value Source: NWS Daily Summary

Daily Weather History Graph

Daily Weather History Graph

Search for Another Location

Airport or City:

Trip Planner

Search our weather history database for the weather conditions in past years. The results will help you decide how hot, cold, wet, or windy it might be!

Date:

Astronomy

Oct. 23, 2012 Rise Set
Actual Time 7:45 AM CDT 6:30 PM CDT
Civil Twilight 7:17 AM CDT 6:58 PM CDT
Nautical Twilight 6:45 AM CDT 7:31 PM CDT
Astronomical Twilight 6:13 AM CDT 8:03 PM CDT
Moon 3:18 PM CDT (10/23) 1:35 AM CDT (10/23)
Length of Visible Light 11h 41m
Length of Day
10h 44m
Waxing Gibbous, 67% of the Moon is Illuminated
Oct 23
Waxing Gibbous
Oct 29
Full
Nov 6
Last Quarter
Nov 13
New
Nov 20
First Quarter

Hourly Weather History & Observations

Time (CDT) Temp. Dew Point Humidity Pressure Visibility Wind Dir Wind Speed Gust Speed Precip Events Conditions
12:15 AM 57.6 °F 53.2 °F 85% 29.77 in 10.0 mi SW 5.8 mph - N/A   Overcast
12:35 AM 56.8 °F 53.6 °F 89% 29.77 in 7.0 mi SSW 8.1 mph - N/A   Overcast
12:55 AM 56.3 °F 53.6 °F 91% 29.78 in 4.0 mi SW 9.2 mph - N/A   Overcast
1:15 AM 56.3 °F 53.8 °F 91% 29.78 in 4.0 mi SSW 10.4 mph - N/A   Overcast
1:35 AM 56.3 °F 54.1 °F 92% 29.77 in 0.5 mi South 12.7 mph - N/A Fog Fog
1:55 AM 55.6 °F 54.0 °F 94% 29.78 in 0.8 mi SW 10.4 mph - N/A   Overcast
2:15 AM 55.6 °F 54.0 °F 94% 29.78 in 0.5 mi SSW 10.4 mph - N/A Fog Fog
2:35 AM 55.2 °F 53.6 °F 94% 29.77 in 1.5 mi SSW 12.7 mph - N/A   Overcast
2:55 AM 55.0 °F 53.6 °F 95% 29.78 in 1.5 mi SW 8.1 mph - N/A   Overcast
3:15 AM 55.0 °F 53.6 °F 95% 29.77 in 1.5 mi SW 8.1 mph - N/A   Overcast
3:35 AM 54.9 °F 53.6 °F 96% 29.75 in 0.8 mi SSW 8.1 mph - N/A   Overcast
3:55 AM 54.5 °F 53.2 °F 96% 29.76 in 1.8 mi SW 8.1 mph - N/A   Overcast
4:15 AM 54.7 °F 53.6 °F 96% 29.76 in 1.2 mi SW 4.6 mph - N/A   Overcast
4:35 AM 54.5 °F 53.4 °F 96% 29.75 in 0.5 mi SSW 6.9 mph - N/A Fog Fog
4:55 AM 54.5 °F 53.1 °F 95% 29.76 in 0.5 mi SSW 6.9 mph - N/A Fog Fog
5:15 AM 54.1 °F 52.9 °F 95% 29.75 in 0.5 mi South 8.1 mph - N/A Fog Fog
5:35 AM 54.1 °F 52.9 °F 95% 29.75 in 0.5 mi South 6.9 mph - N/A Fog Fog
5:55 AM 54.1 °F 52.9 °F 95% 29.75 in 1.0 mi South 8.1 mph - N/A   Overcast
6:35 AM 53.8 °F 52.7 °F 96% 29.76 in 1.2 mi SSW 5.8 mph - N/A   Overcast
6:55 AM 53.6 °F 52.3 °F 95% 29.76 in 1.5 mi SW 5.8 mph - N/A   Overcast
7:15 AM 53.6 °F 52.5 °F 96% 29.76 in 0.5 mi SSW 4.6 mph - N/A Fog Fog
7:35 AM 53.8 °F 52.7 °F 96% 29.76 in 0.2 mi Calm Calm - N/A Fog Fog
7:55 AM 53.8 °F 52.7 °F 96% 29.75 in 0.2 mi SSE 3.5 mph - N/A Fog Fog
8:15 AM 53.8 °F 52.7 °F 96% 29.75 in 0.2 mi Calm Calm - N/A Fog Fog
8:35 AM 54.1 °F 53.1 °F 96% 29.76 in 0.2 mi Calm Calm - N/A Fog Fog
8:55 AM 54.5 °F 53.1 °F 95% 29.77 in 0.5 mi Calm Calm - N/A Fog Fog
9:15 AM 54.7 °F 53.6 °F 96% 29.76 in 0.8 mi ESE 4.6 mph - N/A   Overcast
9:35 AM 55.0 °F 53.8 °F 96% 29.76 in 1.0 mi ESE 3.5 mph - N/A   Overcast
9:55 AM 55.6 °F 54.5 °F 96% 29.76 in 1.0 mi ESE 4.6 mph - N/A   Overcast
10:15 AM 56.7 °F 55.6 °F 96% 29.75 in 1.8 mi SE 6.9 mph - N/A   Overcast
10:55 AM 58.3 °F 57.2 °F 96% 29.74 in 3.0 mi SE 4.6 mph - N/A   Overcast
11:15 AM 59.2 °F 57.9 °F 96% 29.73 in 4.0 mi SE 6.9 mph - N/A   Overcast
11:35 AM 60.1 °F 58.8 °F 96% 29.72 in 4.0 mi SE 5.8 mph - N/A   Overcast
11:55 AM 60.8 °F 59.0 °F 94% 29.72 in 5.0 mi SE 5.8 mph - N/A   Overcast
12:15 PM 62.6 °F 58.8 °F 87% 29.71 in 7.0 mi SE 4.6 mph - N/A   Overcast
12:35 PM 63.5 °F 59.0 °F 85% 29.71 in 7.0 mi SSE 8.1 mph - N/A   Overcast
12:55 PM 64.4 °F 59.2 °F 83% 29.70 in 7.0 mi SSE 6.9 mph - N/A   Overcast
1:15 PM 65.7 °F 59.9 °F 82% 29.69 in 7.0 mi South 10.4 mph - N/A   Overcast
1:35 PM 66.2 °F 60.1 °F 81% 29.69 in 7.0 mi SSE 8.1 mph - N/A   Overcast
1:55 PM 67.1 °F 60.4 °F 79% 29.68 in 7.0 mi South 9.2 mph - N/A   Overcast
2:15 PM 67.5 °F 60.8 °F 79% 29.69 in 10.0 mi South 6.9 mph - N/A   Overcast
2:55 PM 68.7 °F 61.0 °F 76% 29.68 in 10.0 mi Calm Calm - N/A   Overcast
3:15 PM 70.9 °F 61.5 °F 72% 29.66 in 10.0 mi Calm Calm - N/A   Mostly Cloudy
3:35 PM 71.8 °F 61.5 °F 70% 29.66 in 10.0 mi South 3.5 mph - N/A   Mostly Cloudy
3:55 PM 71.6 °F 61.7 °F 71% 29.66 in 10.0 mi Calm Calm - N/A   Scattered Clouds
4:15 PM 72.0 °F 61.9 °F 70% 29.66 in 10.0 mi Calm Calm - N/A   Clear
4:35 PM 71.1 °F 61.7 °F 72% 29.68 in 10.0 mi NW 4.6 mph - N/A   Scattered Clouds
4:55 PM 72.0 °F 61.9 °F 70% 29.68 in 10.0 mi NNW 4.6 mph - N/A   Scattered Clouds
5:15 PM 72.5 °F 61.7 °F 69% 29.67 in 10.0 mi Calm Calm - N/A   Clear
5:35 PM 71.6 °F 61.7 °F 71% 29.67 in 10.0 mi NNW 3.5 mph - N/A   Clear
5:55 PM 70.0 °F 61.5 °F 74% 29.67 in 10.0 mi North 4.6 mph - N/A   Clear
6:15 PM 68.7 °F 61.0 °F 76% 29.66 in 10.0 mi NE 3.5 mph - N/A   Clear
6:35 PM 67.1 °F 60.3 °F 79% 29.67 in 10.0 mi North 4.6 mph - N/A   Clear
6:55 PM 66.6 °F 60.4 °F 81% 29.69 in 10.0 mi North 9.2 mph - N/A   Clear
7:15 PM 65.3 °F 59.9 °F 83% 29.70 in 10.0 mi North 9.2 mph - N/A   Clear
7:35 PM 64.4 °F 59.4 °F 84% 29.71 in 10.0 mi NNW 9.2 mph - N/A   Clear
7:55 PM 64.0 °F 59.2 °F 84% 29.71 in 10.0 mi North 9.2 mph - N/A   Clear
8:15 PM 62.8 °F 58.5 °F 86% 29.72 in 7.0 mi North 9.2 mph - N/A   Clear
8:35 PM 61.9 °F 57.9 °F 87% 29.72 in 7.0 mi NNW 8.1 mph - N/A   Clear
8:55 PM 61.2 °F 57.4 °F 87% 29.73 in 7.0 mi NNW 9.2 mph - N/A   Clear
9:15 PM 60.6 °F 56.8 °F 87% 29.74 in 5.0 mi NNW 6.9 mph - N/A   Clear
9:35 PM 59.4 °F 56.3 °F 90% 29.74 in 5.0 mi NNW 5.8 mph - N/A   Clear
9:55 PM 59.4 °F 56.5 °F 90% 29.74 in 5.0 mi NNW 8.1 mph - N/A   Clear
10:15 PM 59.0 °F 56.3 °F 91% 29.75 in 5.0 mi NNW 8.1 mph - N/A   Clear
10:35 PM 58.5 °F 55.8 °F 91% 29.75 in 5.0 mi NNW 8.1 mph - N/A   Clear
10:55 PM 58.1 °F 55.6 °F 91% 29.77 in 4.0 mi NNW 8.1 mph - N/A   Clear
11:15 PM 58.1 °F 55.6 °F 91% 29.77 in 4.0 mi North 8.1 mph - N/A   Clear
11:35 PM 57.6 °F 55.4 °F 92% 29.77 in 4.0 mi NNE 5.8 mph - N/A   Clear
11:55 PM 57.2 °F 55.2 °F 93% 29.76 in 3.0 mi NNE 4.6 mph - N/A   Clear